FW5486 Weather Reports


Display with metric or nautical units.
time (UTC)temp
F
wind
direction
speed
MPH
gust
MPH
rain 1hr
in
rain 24hr
in
rain mn
in
humidity
%
barometer
mb
20260505052910 63 121 1.0 2.0 0.00 0.00 0.00 78 1014.2
20260505052410 64 121 1.0 2.0 0.00 0.00 0.00 77 1014.2
20260505052141 64 140 1.0 2.0 0.00 0.00 0.00 77 1014.2
20260505051408 64 129 1.0 2.0 0.00 0.00 0.00 76 1014.3
20260505050908 64 129 1.0 3.0 0.00 0.00 0.00 76 1014.4
20260505050639 65 129 2.0 3.0 0.00 0.00 0.00 75 1014.4
20260505041349 66 154 2.0 5.0 0.00 0.00 0.00 72 1014.4
20260505041120 66 145 2.0 4.0 0.00 0.00 0.00 72 1014.5
20260505040349 66 169 2.0 4.0 0.00 0.00 0.00 71 1014.5
20260505040121 66 163 2.0 5.0 0.00 0.00 0.00 71 1014.5
20260505035348 66 150 2.0 5.0 0.00 0.00 0.00 71 1014.6
20260505034844 66 165 2.0 5.0 0.00 0.00 0.00 70 1014.7
20260505034344 66 174 2.0 5.0 0.00 0.00 0.00 70 1014.4
20260505033844 67 148 3.0 6.0 0.00 0.00 0.00 70 1014.4
20260505033617 67 142 3.0 6.0 0.00 0.00 0.00 69 1014.5
20260505032849 67 153 3.0 7.0 0.00 0.00 0.00 69 1014.4
20260505032844 67 155 2.0 7.0 0.00 0.00 0.00 69 1014.5
20260505031839 67 153 3.0 6.0 0.00 0.00 0.00 68 1014.3
20260505031340 67 146 3.0 6.0 0.00 0.00 0.00 68 1014.4
20260505030838 67 159 3.0 7.0 0.00 0.00 0.00 67 1014.4
20260505030339 67 166 3.0 7.0 0.00 0.00 0.00 67 1014.3
20260505025837 67 165 3.0 7.0 0.00 0.00 0.00 67 1014.3
20260505025609 67 150 3.0 7.0 0.00 0.00 0.00 66 1014.5
20260505024830 68 158 3.0 7.0 0.00 0.00 0.00 66 1014.5
20260505024328 68 179 2.0 7.0 0.00 0.00 0.00 66 1014.3
20260505023829 68 124 3.0 9.0 0.00 0.00 0.00 65 1014.3
20260505023327 68 141 3.0 9.0 0.00 0.00 0.00 65 1014.2
20260505022827 68 169 3.0 9.0 0.00 0.00 0.00 65 1014.0
20260505022600 68 142 3.0 9.0 0.00 0.00 0.00 64 1014.0
20260505021824 68 168 3.0 7.0 0.00 0.00 0.00 64 1014.1
20260505021323 69 175 4.0 7.0 0.00 0.00 0.00 64 1014.0
20260505020822 69 168 4.0 8.0 0.00 0.00 0.00 64 1014.0
20260505020321 69 177 3.0 8.0 0.00 0.00 0.00 64 1014.1
20260505015822 69 154 3.0 8.0 0.00 0.00 0.00 63 1014.0
20260505015323 69 173 3.0 8.0 0.00 0.00 0.00 63 1014.0
20260505014824 69 170 3.0 8.0 0.00 0.00 0.00 63 1014.0
20260505014315 70 171 3.0 8.0 0.00 0.00 0.00 62 1014.1
20260505014047 70 155 3.0 8.0 0.00 0.00 0.00 62 1014.0
20260505013547 70 188 3.0 8.0 0.00 0.00 0.00 62 1013.8
20260505012817 70 219 2.0 8.0 0.00 0.00 0.00 62 1014.0
20260505012311 70 165 2.0 7.0 0.00 0.00 0.00 62 1014.0
20260505011805 70 183 2.0 8.0 0.00 0.00 0.00 62 1014.1
20260505011305 71 164 3.0 8.0 0.00 0.00 0.00 61 1014.0
20260505010806 71 160 3.0 8.0 0.00 0.00 0.00 61 1014.0
20260505010306 71 156 3.0 9.0 0.00 0.00 0.00 61 1013.9
20260505005810 71 155 2.0 10.0 0.00 0.00 0.00 60 1013.9
20260505005806 71 178 2.0 9.0 0.00 0.00 0.00 61 1013.9
20260505004805 71 190 3.0 10.0 0.00 0.00 0.00 60 1014.0
20260505004308 71 147 4.0 11.0 0.00 0.00 0.00 59 1014.0
20260505003806 72 150 3.0 11.0 0.00 0.00 0.00 59 1013.9
20260505003537 72 174 3.0 10.0 0.00 0.00 0.00 59 1014.1
20260505002807 72 161 4.0 12.0 0.00 0.00 0.00 58 1014.0
20260505002532 72 160 3.0 12.0 0.00 0.00 0.00 58 1013.9
20260505001803 73 169 4.0 13.0 0.00 0.00 0.00 58 1014.0
20260505001301 73 140 4.0 13.0 0.00 0.00 0.00 57 1014.0
20260505000801 73 148 2.0 8.0 0.00 0.00 0.00 57 1013.9
20260505000302 73 228 2.0 7.0 0.00 0.00 0.00 56 1014.0
20260505000033 74 165 1.0 6.0 0.00 0.00 0.00 56 1014.1
20260504235304 74 235 2.0 9.0 0.00 0.00 0.00 56 1014.2
20260504234802 74 219 2.0 9.0 0.00 0.00 0.00 55 1014.3
20260504234303 74 167 2.0 8.0 0.00 0.00 0.00 55 1014.2
20260504233754 74 187 2.0 8.0 0.00 0.00 0.00 54 1014.4
20260504233254 74 173 1.0 5.0 0.00 0.00 0.00 55 1014.4
20260504232752 75 153 2.0 10.0 0.00 0.00 0.00 54 1014.5
20260504232251 75 182 2.0 10.0 0.00 0.00 0.00 53 1014.6
20260504231749 75 165 1.0 4.0 0.00 0.00 0.00 53 1014.7
20260504231246 75 217 1.0 4.0 0.00 0.00 0.00 53 1014.8
20260504230745 75 219 2.0 8.0 0.00 0.00 0.00 53 1014.8
20260504230246 75 219 2.0 8.0 0.00 0.00 0.00 53 1014.8
20260504225743 76 193 2.0 9.0 0.00 0.00 0.00 52 1014.8
20260504225243 76 205 3.0 11.0 0.00 0.00 0.00 54 1014.8
20260504224744 76 166 2.0 11.0 0.00 0.00 0.00 51 1014.9
20260504224238 76 150 1.0 7.0 0.00 0.00 0.00 51 1014.9
20260504223740 76 178 2.0 6.0 0.00 0.00 0.00 51 1014.9
20260504223238 76 219 2.0 6.0 0.00 0.00 0.00 51 1015.0
20260504222740 76 273 1.0 6.0 0.00 0.00 0.00 50 1014.9
20260504222239 76 259 2.0 6.0 0.00 0.00 0.00 52 1015.1
20260504221739 77 164 2.0 5.0 0.00 0.00 0.00 49 1015.1
20260504221233 77 204 2.0 5.0 0.00 0.00 0.00 52 1015.0
20260504221006 77 201 2.0 5.0 0.00 0.00 0.00 50 1015.1
20260504220234 78 220 2.0 3.0 0.00 0.00 0.00 49 1015.2
20260504215733 77 238 2.0 7.0 0.00 0.00 0.00 50 1015.2
20260504215234 77 243 2.0 7.0 0.00 0.00 0.00 52 1015.2
20260504214732 78 184 1.0 4.0 0.00 0.00 0.00 49 1015.4
20260504214234 78 205 2.0 4.0 0.00 0.00 0.00 48 1015.2
20260504213727 78 223 3.0 6.0 0.00 0.00 0.00 48 1015.5
20260504213229 77 228 3.0 8.0 0.00 0.00 0.00 49 1015.5
20260504212731 77 233 3.0 8.0 0.00 0.00 0.00 48 1015.6
20260504212228 77 204 3.0 10.0 0.00 0.00 0.00 47 1015.7
20260504211728 77 215 4.0 13.0 0.00 0.00 0.00 48 1015.7
20260504211228 77 202 4.0 13.0 0.00 0.00 0.00 48 1015.7
20260504210722 77 182 2.0 9.0 0.00 0.00 0.00 47 1015.6
20260504210218 77 220 2.0 9.0 0.00 0.00 0.00 46 1015.6
20260504205718 77 182 2.0 7.0 0.00 0.00 0.00 50 1015.7
20260504205216 77 205 3.0 10.0 0.00 0.00 0.00 50 1015.9
20260504204948 77 171 3.0 10.0 0.00 0.00 0.00 47 1015.8
20260504204212 77 117 3.0 7.0 0.00 0.00 0.00 47 1015.9
20260504203712 77 241 2.0 7.0 0.00 0.00 0.00 47 1016.0
20260504203209 77 236 2.0 11.0 0.00 0.00 0.00 48 1015.9
20260504202941 78 198 3.0 11.0 0.00 0.00 0.00 47 1016.1
20260504202210 78 240 2.0 7.0 0.00 0.00 0.00 52 1016.1
20260504201710 77 228 2.0 6.0 0.00 0.00 0.00 48 1016.1
20260504201206 77 219 3.0 7.0 0.00 0.00 0.00 48 1016.3
20260504200938 77 230 2.0 8.0 0.00 0.00 0.00 46 1016.5
20260504200434 77 209 3.0 13.0 0.00 0.00 0.00 48 1016.6
20260504195702 77 244 3.0 13.0 0.00 0.00 0.00 48 1016.6
20260504195200 77 164 2.0 10.0 0.00 0.00 0.00 48 1016.6
20260504194701 77 215 2.0 13.0 0.00 0.00 0.00 48 1016.6
20260504194156 77 173 4.0 13.0 0.00 0.00 0.00 46 1016.9
20260504193654 76 187 4.0 10.0 0.00 0.00 0.00 49 1016.8
20260504193157 77 161 3.0 10.0 0.00 0.00 0.00 47 1017.0
20260504192657 77 215 3.0 10.0 0.00 0.00 0.00 50 1017.1
20260504192154 77 117 3.0 10.0 0.00 0.00 0.00 47 1017.0
20260504191653 77 185 2.0 10.0 0.00 0.00 0.00 46 1017.1
20260504191146 77 247 3.0 11.0 0.00 0.00 0.00 47 1017.3
20260504190647 77 293 3.0 11.0 0.00 0.00 0.00 47 1017.2
20260504190148 77 199 2.0 11.0 0.00 0.00 0.00 49 1017.3
20260504185648 77 186 4.0 12.0 0.00 0.00 0.00 49 1017.6
20260504185148 77 186 4.0 12.0 0.00 0.00 0.00 45 1017.5
20260504184647 77 184 2.0 8.0 0.00 0.00 0.00 47 1017.6
20260504184140 78 221 2.0 13.0 0.00 0.00 0.00 45 1017.5
20260504183910 77 267 2.0 13.0 0.00 0.00 0.00 45 1017.6
20260504183137 77 244 2.0 13.0 0.00 0.00 0.00 48 1017.6
20260504182637 76 192 3.0 13.0 0.00 0.00 0.00 47 1017.6
20260504182134 76 152 4.0 10.0 0.00 0.00 0.00 46 1017.6
20260504181635 77 178 3.0 10.0 0.00 0.00 0.00 46 1017.7
20260504181400 76 238 3.0 11.0 0.00 0.00 0.00 49 1017.6
20260504180629 77 186 3.0 11.0 0.00 0.00 0.00 45 1017.6
20260504180130 76 230 3.0 11.0 0.00 0.00 0.00 47 1017.7
20260504175628 76 218 3.0 11.0 0.00 0.00 0.00 49 1017.6
20260504175128 76 232 4.0 17.0 0.00 0.00 0.00 48 1017.9
20260504174900 76 201 5.0 17.0 0.00 0.00 0.00 49 1017.9
20260504174129 76 169 4.0 15.0 0.00 0.00 0.00 48 1018.0
20260504173858 76 237 3.0 10.0 0.00 0.00 0.00 47 1018.1
20260504173128 76 186 3.0 10.0 0.00 0.00 0.00 51 1018.2
20260504172630 76 217 3.0 7.0 0.00 0.00 0.00 47 1018.3
20260504172127 75 265 6.0 14.0 0.00 0.00 0.00 47 1018.4
20260504171857 75 207 7.0 15.0 0.00 0.00 0.00 46 1018.4
20260504171129 75 188 4.0 15.0 0.00 0.00 0.00 47 1018.6
20260504170854 75 194 3.0 11.0 0.00 0.00 0.00 46 1018.6
20260504170123 75 178 3.0 11.0 0.00 0.00 0.00 46 1018.6
20260504160114 74 252 3.0 9.0 0.00 0.00 0.00 46 1019.0
20260504150559 73 206 3.0 12.0 0.00 0.00 0.00 47 1019.0
20260504141048 71 215 1.0 9.0 0.00 0.00 0.00 61 1019.0
20260504140549 70 136 1.0 3.0 0.00 0.00 0.00 63 1019.0
20260504130536 63 130 0.0 0.0 0.00 0.00 0.00 77 1019.0
20260504110504 53 234 0.0 0.0 0.00 0.00 0.00 91 1018.2
20260504100443 53 234 0.0 0.0 0.00 0.00 0.00 90 1018.2
20260504081932 55 234 0.0 0.0 0.00 0.00 0.00 88 1018.7
20260504081431 55 234 0.0 0.0 0.00 0.00 0.00 87 1018.7
20260504080429 55 234 0.0 0.0 0.00 0.00 0.00 88 1018.9
20260504070303 56 234 0.0 0.0 0.00 0.00 0.00 85 1019.2
20260504070152 56 234 0.0 0.0 0.00 0.00 0.00 85 1019.2